Change the Weather History Date:

Monday, September 24, 2012

  Actual Average Record
Temperature  
Mean Temperature 53 °F 62 °F  
Max Temperature 71 °F 75 °F 91 °F (2007)
Min Temperature 34 °F 49 °F 34 °F (2012)
Degree Days  
Heating Degree Days 12 5  
Month to date heating degree days 75 46  
Since 1 July heating degree days 77 55  
Growing Degree Days 3 (Base 50)    
Moisture  
Dew Point 35 °F    
Average Humidity 59    
Maximum Humidity 92    
Minimum Humidity 25    
Precipitation  
Precipitation 0.00 in 0.10 in 0.53 in (2000)
Month to date precipitation 5.63 2.66  
Year to date precipitation 20.86 29.94  
Sea Level Pressure  
Sea Level Pressure 30.15 in    
Wind  
Wind Speed 9 mph (SSW)    
Max Wind Speed 21 mph    
Max Gust Speed 32 mph    
Visibility 10 miles    
Events      
T = Trace of Precipitation, MM = Missing Value Source: NWS Daily Summary

Daily Weather History Graph

Daily Weather History Graph

Search for Another Location

Airport or City:

Trip Planner

Search our weather history database for the weather conditions in past years. The results will help you decide how hot, cold, wet, or windy it might be!

Date:

Astronomy

Sep. 24, 2012 Rise Set
Actual Time 6:43 AM CDT 6:46 PM CDT
Civil Twilight 6:16 AM CDT 7:13 PM CDT
Nautical Twilight 5:44 AM CDT 7:44 PM CDT
Astronomical Twilight 5:12 AM CDT 8:16 PM CDT
Moon 3:31 PM CDT (9/24) 12:59 AM CDT (9/24)
Length of Visible Light 12h 56m
Length of Day
12h 02m
Waxing Gibbous, 71% of the Moon is Illuminated
Sep 24
Waxing Gibbous
Sep 29
Full
Oct 8
Last Quarter
Oct 15
New
Oct 21
First Quarter

Hourly Weather History & Observations

Time (CDT) Temp. Windchill Dew Point Humidity Pressure Visibility Wind Dir Wind Speed Gust Speed Precip Events Conditions
12:53 AM 37.9 °F 35.5 °F 33.1 °F 83% 30.26 in 10.0 mi WSW 3.5 mph - N/A   Clear
1:53 AM 36.0 °F 33.3 °F 33.1 °F 89% 30.27 in 10.0 mi SSW 3.5 mph - N/A   Clear
2:53 AM 39.0 °F - 33.1 °F 79% 30.26 in 8.0 mi Calm Calm - N/A   Clear
3:53 AM 39.0 °F - 33.1 °F 79% 30.27 in 10.0 mi Calm Calm - N/A   Clear
4:53 AM 35.1 °F - 30.9 °F 85% 30.27 in 10.0 mi Calm Calm - N/A   Clear
5:53 AM 35.1 °F 32.2 °F 30.0 °F 82% 30.27 in 10.0 mi South 3.5 mph - N/A   Clear
6:53 AM 36.0 °F 33.3 °F 30.9 °F 82% 30.27 in 10.0 mi South 3.5 mph - N/A   Clear
7:53 AM 45.0 °F 41.8 °F 37.0 °F 74% 30.26 in 10.0 mi South 5.8 mph - N/A   Clear
8:53 AM 53.1 °F - 36.0 °F 52% 30.25 in 10.0 mi South 11.5 mph - N/A   Clear
9:53 AM 60.1 °F - 34.0 °F 38% 30.24 in 10.0 mi SSW 15.0 mph - N/A   Clear
10:53 AM 64.0 °F - 32.0 °F 30% 30.22 in 10.0 mi SSW 13.8 mph 20.7 mph N/A   Clear
11:53 AM 66.9 °F - 32.0 °F 27% 30.19 in 10.0 mi SW 15.0 mph 23.0 mph N/A   Clear
12:53 PM 68.0 °F - 32.0 °F 26% 30.17 in 10.0 mi SW 12.7 mph - N/A   Clear
1:53 PM 70.0 °F - 33.1 °F 26% 30.13 in 10.0 mi SSW 17.3 mph 24.2 mph N/A   Clear
2:53 PM 71.1 °F - 34.0 °F 26% 30.09 in 10.0 mi South 17.3 mph 24.2 mph N/A   Clear
3:53 PM 71.1 °F - 34.0 °F 26% 30.05 in 10.0 mi South 13.8 mph - N/A   Clear
4:53 PM 70.0 °F - 35.1 °F 28% 30.03 in 10.0 mi SSW 15.0 mph - N/A   Clear
5:53 PM 66.0 °F - 37.0 °F 34% 30.01 in 10.0 mi South 11.5 mph - N/A   Clear
6:53 PM 60.1 °F - 39.9 °F 47% 30.01 in 10.0 mi South 8.1 mph - N/A   Clear
7:53 PM 54.0 °F - 39.9 °F 59% 30.01 in 10.0 mi South 6.9 mph - N/A   Clear
8:53 PM 54.0 °F - 41.0 °F 62% 30.01 in 10.0 mi South 8.1 mph - N/A   Clear
9:53 PM 52.0 °F - 41.0 °F 66% 30.01 in 10.0 mi South 6.9 mph - N/A   Clear
10:53 PM 55.9 °F - 42.1 °F 60% 29.99 in 10.0 mi South 8.1 mph - N/A   Clear
11:53 PM 57.0 °F - 43.0 °F 59% 29.99 in 10.0 mi South 8.1 mph - N/A   Mostly Cloudy